カタログに戻る

LEMUR-2 GRAM-E-SUE

運用中気象SSO
NORAD 67370·PAYLOAD·🇺🇸 United States

打ち上げ Jan 11, 2026 から Vandenberg Space Force Base

Loading…

次のパス (今後24時間)

TLE

最新Source: Space-Track

元期: Sep 14, 2026, 10:19 UTC

1 67370U 26004H   26257.42996250  .00003109  00000-0  33707-3 0  9990
2 67370  97.8037 254.6323 0006238 198.4408 161.6584 14.88895568 36571

AllMySatでLEMUR-2 GRAM-E-SUEをリアルタイム追跡

Download on the App Store